BEIDOU IGSO-7 (43539 NORAD) Tracking and Keplerian Element Data

This shows tracking and keplerian element data for the satellite.

Feedback or suggestion? Click here.




ElementValue
Catalog43539
NameBEIDOU IGSO-7
Epoch Orbit322
Epoch Day139.54281561
Epoch Year2019
RAAN185.8805
Inclination55.0342
Eccentricity0.002382
Argument of Perigee199.6347
Mean Anonmoly159.2314
Mean Motion1.00287103
Decay Rate-7.7E-07
L11 43539U 18057A 19139.54281561 -.00000077 00000-0 00000+0 0 9994
L22 43539 55.0342 185.8805 0023820 199.6347 159.2314 1.00287103 3228

Live tracking and technical data element details for BEIDOU IGSO-7 (NORAD 43539). BEIDOU IGSO-7 can be tracked NOW for your location showing map with azimuth and elevation plus other details from your city location.

Track the satellite on the map from your city or location and see movement details for azimuth, elevation, latitude, longitude, range, height, and movement on the map or in text.







IsCatalogInMostPopularTable: catalog: 43539, numindb: 155
Update: records affected: 1



GetName: 43539 BEIDOU IGSO-7

Hit Count: updated at: Tue, 21 May 2019 21:39:20 GMT